This is the latest recevied weather packets stored in our database for station/object KE0PRS. If no packets are shown the sender has not sent any weather packets the latest 10 day(s).
| Time | Temp. | Humidity | Pressure | Rain* | Wind** | Luminosity | Snow |
|---|---|---|---|---|---|---|---|
| 1777692860 | 10° C | 70% | 1020.2 hPa | 0 mm | - | 0 W/m² | - |
| 1777692557 | 10.56° C | 69% | 1020 hPa | 0 mm | - | 0 W/m² | - |
| 1777692253 | 10.56° C | 69% | 1019.9 hPa | 0 mm | - | 0 W/m² | - |
| 1777691950 | 10.56° C | 69% | 1019.9 hPa | 0 mm | - | 0 W/m² | - |
| 1777691649 | 10.56° C | 68% | 1019.4 hPa | 0 mm | - | 0 W/m² | - |
| 1777691347 | 11.11° C | 68% | 1019.7 hPa | 0 mm | - | 0 W/m² | - |
| 1777691044 | 11.11° C | 68% | 1019.6 hPa | 0 mm | - | 0 W/m² | - |
| 1777690742 | 11.11° C | 68% | 1019.6 hPa | 0 mm | - | 0 W/m² | - |
| 1777690439 | 11.67° C | 67% | 1019.5 hPa | 0 mm | - | 0 W/m² | - |
| 1777690137 | 11.67° C | 67% | 1019.4 hPa | 0 mm | - | 0 W/m² | - |
| 1777689834 | 11.67° C | 66% | 1019.3 hPa | 0 mm | - | 0 W/m² | - |
| 1777689532 | 11.67° C | 67% | 1019.3 hPa | 0 mm | - | 0 W/m² | - |
| 1777689230 | 11.67° C | 67% | 1019.3 hPa | 0 mm | - | 0 W/m² | - |
| 1777688927 | 11.67° C | 66% | 1019.3 hPa | 0 mm | - | 0 W/m² | - |
| 1777688623 | 12.22° C | 66% | 1019.1 hPa | 0 mm | - | 0 W/m² | - |
| 1777688320 | 11.67° C | 66% | 1019.1 hPa | 0 mm | - | 0 W/m² | - |
| 1777688018 | 12.22° C | 66% | 1019.1 hPa | 0 mm | - | 0 W/m² | - |
| 1777687715 | 12.22° C | 65% | 1018.6 hPa | 0 mm | - | 0 W/m² | - |
| 1777687412 | 12.22° C | 65% | 1019 hPa | 0 mm | - | 0 W/m² | - |
| 1777687109 | 12.78° C | 64% | 1018.5 hPa | 0 mm | - | 0 W/m² | - |
| 1777686807 | 12.78° C | 63% | 1018.5 hPa | 0 mm | - | 0 W/m² | - |
| 1777686504 | 12.78° C | 62% | 1018.5 hPa | 0 mm | - | 0 W/m² | - |
| 1777686201 | 12.78° C | 61% | 1018.3 hPa | 0 mm | - | 0 W/m² | - |
| 1777685897 | 13.33° C | 61% | 1018.4 hPa | 0 mm | - | 1 W/m² | - |
| 1777685593 | 13.33° C | 60% | 1018.4 hPa | 0 mm | - | 2 W/m² | - |
* Rain latest hour (hover to see other rain measurements)
** Current wind speed in m/s (hover to see current wind gust speed)